[TLELIST] Archives

 

Current TLEs

August 2nd 2006 PDT

HST 1 20580U 90037B 06213.93708185 +.00000367 +00000-0 +15750-4 0 06699 2 20580 028.4674 111.6470 0003362 305.5655 054.4621 15.00070059691972 ISS (ZARYA) 1 25544U 98067A 06214.46005260 .00012605 00000-0 82399-4 0 4259 2 25544 051.6347 309.0764 0008037 143.0594 274.2033 15.76244213440465 CXO 1 25867U 99040B 06215.33333333 .00000000 00000-0 00000+0 0 9560 2 25867 059.9819 096.0365 5836040 289.7801 356.6435 00.37793982 1215 ____________________________________________________________________ These 2-Line ...Continue Reading

Current TLEs

August 1st 2006 PDT

HST 1 20580U 90037B 06211.94109716 +.00000318 +00000-0 +11910-4 0 06817 2 20580 028.4675 124.6584 0003420 283.4046 076.6160 15.00068987691674 ISS (ZARYA) 1 25544U 98067A 06213.31806940 .00013758 00000-0 89635-4 0 4177 2 25544 051.6352 314.9590 0008443 138.9814 273.8127 15.76217819440283 CXO 1 25867U 99040B 06212.70833333 .00000000 00000-0 00000+0 0 9552 2 25867 059.9606 096.0842 5835000 289.8403 359.2222 00.37800267 1211 ____________________________________________________________________ These 2-Line ...Continue Reading

Current TLEs

July 31st 2006 PDT

HST 1 20580U 90037B 06212.14069545 .00000334 00000-0 13172-4 0 6668 2 20580 028.4674 123.3561 0003405 285.8146 074.2067 15.00069153691704 ISS (ZARYA) 1 25544U 98067A 06212.10414352 .00013599 00000-0 88782-4 0 4114 2 25544 051.6351 321.2141 0008545 135.3966 224.5385 15.76182712440087 CXO 1 25867U 99040B 06212.70833333 .00000000 00000-0 00000+0 0 9552 2 25867 059.9606 096.0842 5835000 289.8403 359.2222 00.37800267 1211 ____________________________________________________________________ These 2-Line ...Continue Reading

Current TLEs

July 30th 2006 PDT

HST 1 20580U 90037B 06210.87657173 .00000302 00000-0 10664-4 0 6653 2 20580 028.4673 131.5974 0003501 271.8489 088.1701 15.00068463691515 ISS (ZARYA) 1 25544U 98067A 06211.47873941 .00014605 00000-0 95092-4 0 4072 2 25544 051.6349 324.4373 0008562 132.1165 276.7381 15.76167671439991 CXO 1 25867U 99040B 06210.08333333 .00000000 00000-0 00000+0 0 9545 2 25867 059.9548 096.1596 5831111 289.8716 001.8320 00.37798141 1215 ____________________________________________________________________ These 2-Line ...Continue Reading

Current TLEs

July 29th 2006 PDT

HST 1 20580U 90037B 06208.94711871 +.00000352 +00000-0 +14538-4 0 06899 2 20580 028.4669 144.1744 0003574 251.5546 108.4652 15.00068200691222 ISS (ZARYA) 1 25544U 98067A 06210.47703356 .00011943 00000-0 78666-4 0 4006 2 25544 051.6348 329.5974 0008548 129.5633 351.6100 15.76130321439834 CXO 1 25867U 99040B 06210.08333333 .00000000 00000-0 00000+0 0 9545 2 25867 059.9548 096.1596 5831111 289.8716 001.8320 00.37798141 1215 ____________________________________________________________________ These 2-Line ...Continue Reading

Current TLEs

July 28th 2006 PDT

HST 1 20580U 90037B 06209.21325065 .00000297 00000-0 10200-4 0 6649 2 20580 028.4670 142.4402 0003544 254.2121 105.8076 15.00067947691264 ISS (ZARYA) 1 25544U 98067A 06209.46353098 .00010758 00000-0 71371-4 0 3904 2 25544 051.6354 334.8203 0008461 125.1760 001.4681 15.76102387439679 CXO 1 25867U 99040B 06210.08333333 .00000000 00000-0 00000+0 0 9545 2 25867 059.9548 096.1596 5831111 289.8716 001.8320 00.37798141 1215 ____________________________________________________________________ These 2-Line ...Continue Reading

Current TLEs

July 27th 2006 PDT

HST 1 20580U 90037B 06207.88259333 .00000307 00000-0 10997-4 0 6638 2 20580 028.4668 151.1156 0003810 240.3349 119.6863 15.00067556691069 ISS (ZARYA) 1 25544U 98067A 06208.49018917 -.00011119 00000-0 00000+0 0 3835 2 25544 051.6328 339.8347 0008164 125.4586 234.7716 15.76057993439529 CXO 1 25867U 99040B 06210.08333333 .00000000 00000-0 00000+0 0 9545 2 25867 059.9548 096.1596 5831111 289.8716 001.8320 00.37798141 1215 ____________________________________________________________________ These 2-Line ...Continue Reading

Current TLEs

July 26th 2006 PDT

HST 1 20580U 90037B 06206.28580520 .00000265 00000-0 76965-5 0 6626 2 20580 028.4668 161.5254 0004008 223.1102 136.9183 15.00066964690821 ISS (ZARYA) 1 25544U 98067A 06207.48355701 -.00385297 00000-0 -25330-2 0 3735 2 25544 051.6367 345.0198 0008365 120.9689 283.9154 15.75939038439364 CXO 1 25867U 99040B 06207.41666667 .00000000 00000-0 00000+0 0 9536 2 25867 059.9645 096.2166 5823829 289.9324 358.7928 00.37789939 1213 ____________________________________________________________________ These 2-Line ...Continue Reading

Current TLEs

July 25th 2006 PDT

HST 1 20580U 90037B 06205.95314084 +.00000318 +00000-0 +11886-4 0 06639 2 20580 028.4668 163.6939 0003991 219.9755 140.0552 15.00067198690771 ISS (ZARYA) 1 25544U 98067A 06205.91536451 +.00008627 +00000-0 +57080-4 0 03639 2 25544 051.6353 353.1005 0010892 111.2911 027.9219 15.76478826439110 CXO 1 25867U 99040B 06204.75000000 .00000000 00000-0 00000+0 0 9522 2 25867 059.9751 096.2228 5817219 290.0595 355.7129 00.37783274 1215 ____________________________________________________________________ These 2-Line ...Continue Reading

Current TLEs

July 24th 2006 PDT

HST 1 20580U 90037B 06204.95514890 +.00000261 +00000-0 +74183-5 0 06632 2 20580 028.4668 170.1985 0004029 209.7724 150.2666 15.00066592690621 ISS (ZARYA) 1 25544U 98067A 06205.46604016 .00008430 00000-0 55893-4 0 3612 2 25544 051.6351 355.4157 0010941 109.8409 357.5936 15.76469808439041 CXO 1 25867U 99040B 06204.75000000 .00000000 00000-0 00000+0 0 9522 2 25867 059.9751 096.2228 5817219 290.0595 355.7129 00.37783274 1215 ____________________________________________________________________ These 2-Line ...Continue Reading
  • This mailing list is a public mailing list - anyone may join or leave, at any time.
  • This mailing list is announce-only.

International Space Station (ISS) / Hubble Space Telescope (HST) / Chandra X-Ray Observatory Orbital Data via EMAIL

Privacy Policy:

Private list